Other Public Products
Issued by NWS Grand Forks, ND

Home | Current Version | Previous Version | Text Only | Print | Product List | Glossary On
Versions: 1 2 3 4 5 6 7 8 9 10 11 12 13 14 15 16 17 18 19 20 21 22 23 24 25 26 27 28 29 30 31 32 33 34 35 36 37 38 39 40 41 42 43 44 45 46 47 48 49 50
000
FPUS83 KFGF 230031
OPUFGF
PRAIRIE TO PINES WEATHER ROUNDUP
NATIONAL WEATHER SERVICE EASTERN NORTH DAKOTA/GRAND FORKS ND
700 PM CDT TUE JUL 22 2014

 **SATELLITE DATA USED TO AUGMENT SKY COVER AT AUTOMATED STATIONS**
 *****  WEATHER ACROSS EASTERN NORTH DAKOTA  *****

CITY           SKY/WX    TMP DP  RH WIND       PRES   REMARKS
GRAND FORKS    MOSUNNY   75  58  55 N10       30.18R
6HR MIN TEMP:  74; 6HR MAX TEMP:  77;

GRAND FORKS AF SUNNY     75  59  57 N10       30.20R
GRAND CITY NWS   N/A     75 N/A N/A N3          N/A
BUXTON           N/A     77  59  54 N10         N/A
DEVILS LAKE    CLOUDY    75  57  53 SE5       30.20S
6HR MIN TEMP:  72; 6HR MAX TEMP:  75;

FARGO          SUNNY     77  57  50 N13       30.18R
6HR MIN TEMP:  77; 6HR MAX TEMP:  79;

WAHPETON ARPT  CLEAR     75  52  43 N13       30.18S
$$

 *****  WEATHER ACROSS CENTRAL AND WESTERN NORTH DAKOTA  *****

CITY           SKY/WX    TMP DP  RH WIND       PRES   REMARKS
JAMESTOWN      MOSUNNY   79  60  52 N6        30.20S
6HR MIN TEMP:  75; 6HR MAX TEMP:  80;

BISMARCK       SUNNY     80  59  48 E6        30.19F
6HR MIN TEMP:  76; 6HR MAX TEMP:  82;

MINOT          PTSUNNY   77  60  55 NE8       30.20S
6HR MIN TEMP:  74; 6HR MAX TEMP:  79;

MINOT AFB      MOSUNNY   77  61  58 E7        30.20R
6HR MIN TEMP:  73; 6HR MAX TEMP:  78;

GARRISON         N/A     78  62  57 E6        30.20S
6HR MIN TEMP:  74; 6HR MAX TEMP:  80;

WILLISTON      PTSUNNY   84  47  27 NW8       30.17F
6HR MIN TEMP:  80; 6HR MAX TEMP:  88;

DICKINSON      PTSUNNY   75  62  64 E7        30.21R
6HR MIN TEMP:  75; 6HR MAX TEMP:  80;

HETTINGER      MOSUNNY   73  59  61 E10       30.23R
6HR MIN TEMP:  76; 6HR MAX TEMP:  83;

$$

 *****  OTHER OBSERVATIONS NORTHEAST NORTH DAKOTA  *****

CITY           SKY/WX    TMP DP  RH WIND       PRES   REMARKS
WALHALLA         N/A     73  54  49 N6          N/A
LANGDON        FAIR      73  55  53 N7        30.22S
CAVALIER       FAIR      75  54  46 N6        30.20R
GRAFTON        FAIR      73  55  53 N9        30.19S
CANDO          FAIR      73  61  64 NE3       30.22R
FORT TOTTEN    NOT AVBL
ROLLA          FAIR      72  61  68 NE7       30.24R
RUGBY          MOCLDY    75  63  64 E5        30.21R
 ***** THE ABOVE OBSERVATIONS ARE NON NWS ARE NOT QUALITY
        CONTROLLED AND MAY MIS-REPORT RAIN FOR SNOW...
$$

 *****  OTHER OBSERVATIONS SOUTHEAST NORTH DAKOTA *****

CITY           SKY/WX    TMP DP  RH WIND       PRES   REMARKS
COOPERSTOWN    NOT AVBL
VALLEY CITY    FAIR      75  57  53 NE8       30.20S
OAKES          NOT AVBL
GWINNER        CLEAR     79  57  47 NE9       30.21R
BUFFALO        NOT AVBL
WYNDMERE       NOT AVBL
 ***** THE ABOVE OBSERVATIONS ARE NON NWS ARE NOT QUALITY
       CONTROLLED AND MAY MIS-REPORT RAIN FOR SNOW...
$$

  *****  WEATHER ACROSS NORTHERN MINNESOTA  *****

CITY           SKY/WX    TMP DP  RH WIND       PRES   REMARKS
FLAG ISLAND    SUNNY     72  52  49 N20       30.14R
WARROAD        MOSUNNY   73  57  56 NW12G17   30.17R
ROSEAU         MOSUNNY   73  57  56 NW9       30.17R
HALLOCK        SUNNY     75  52  43 NW10G16   30.18R
THF RVR FALLS  MOSUNNY   73  54  49 NW10      30.19R
6HR MIN TEMP:  72; 6HR MAX TEMP:  73;

HALSTAD          N/A     75  54  47 N8          N/A
FOSSTON        SUNNY     72  55  56 N9        30.19R
BAUDETTE       SUNNY     74  55  51 NW9       30.15R
6HR MIN TEMP:  71; 6HR MAX TEMP:  76;

WASKISH        SUNNY     72  54  53 N5        30.16R
CROOKSTON      SUNNY     73  59  60 N9        30.20R
$$
  *****  WEATHER ACROSS CENTRAL AND WEST MINNESOTA  *****

CITY           SKY/WX    TMP DP  RH WIND       PRES   REMARKS
BEMIDJI        SUNNY     73  51  46 NW9       30.17R
PARK RAPIDS    SUNNY     74  52  46 N14       30.17R
6HR MIN TEMP:  74; 6HR MAX TEMP:  78;

WADENA         SUNNY     72  54  53 N8        30.17S
DETROIT LAKES  SUNNY     72  54  53 N9G16     30.20S
MOORHEAD       SUNNY     75  63  64 N9        30.19S
FERGUS FALLS   SUNNY     73  52  46 N13G18    30.17S
ELBOW LAKE     FAIR      73  56  54 NW14      30.18R
MORRIS MN      SUNNY     75  57  53 N12       30.17S
STAPLES        SUNNY     73  52  46 N8        30.16S
WHEATON        SUNNY     73  57  56 N8        30.20S
$$
  *****  WEATHER ELSEWHERE ACROSS MINNESOTA  *****

CITY           SKY/WX    TMP DP  RH WIND       PRES   REMARKS
DULUTH         MOSUNNY   75  55  49 N8        30.10R
6HR MIN TEMP:  74; 6HR MAX TEMP:  79;

INTRNTL FALLS  MOSUNNY   73  51  46 NW12      30.12R
6HR MIN TEMP:  71; 6HR MAX TEMP:  76;

ELY            SUNNY     70  52  52 NW7       30.11R
CLOQUET        SUNNY     73  54  49 N7        30.12R
BRAINERD       SUNNY     74  52  46 N10       30.15R
6HR MIN TEMP:  74; 6HR MAX TEMP:  78;

HIBBING        MOSUNNY   75  53  46 N10       30.12R
6HR MIN TEMP:  73; 6HR MAX TEMP:  78;

ALEXANDRIA     SUNNY     76  54  46 N15G22    30.18S
6HR MIN TEMP:  73; 6HR MAX TEMP:  78;

SAINT CLOUD    SUNNY     81  53  37 N10G17    30.12R
6HR MIN TEMP:  80; 6HR MAX TEMP:  85;

MINNEAPOLIS    MOSUNNY   82  55  39 NW17G24   30.08R
6HR MIN TEMP:  80; 6HR MAX TEMP:  86;

$$

  *****  WEATHER ACROSS SOUTH DAKOTA  *****

CITY           SKY/WX    TMP DP  RH WIND       PRES   REMARKS
SIOUX FALLS    MOSUNNY   81  60  48 N12       30.17S
6HR MIN TEMP:  78; 6HR MAX TEMP:  82;

BROOKINGS      NOT AVBL
WATERTOWN      SUNNY     76  56  49 NE10      30.20S
6HR MIN TEMP:  76; 6HR MAX TEMP:  80;

HURON          SUNNY     81  58  45 NE8       30.17S
6HR MIN TEMP:  79; 6HR MAX TEMP:  83;

SISSETON         N/A     78  59  51 N12       30.18S
ABERDEEN       SUNNY     79  60  52 NE8       30.19S
6HR MIN TEMP:  76; 6HR MAX TEMP:  80;

MITCHELL       SUNNY     82  61  48 MISG      30.18R
PIERRE         SUNNY     85  58  39 SE13      30.15F
6HR MIN TEMP:  81; 6HR MAX TEMP:  89;

MOBRIDGE       SUNNY     83  59  44 E6        30.17R
RAPID CITY     MOSUNNY   79  63  57 S8        30.19S
6HR MIN TEMP:  79; 6HR MAX TEMP:  86;

$$

  *****  SOME WEATHER IN NEARBY STATES *****

CITY           SKY/WX    TMP DP  RH WIND       PRES   REMARKS
GLASGOW MT     CLOUDY    82  49  31 NE7       30.17R
6HR MIN TEMP:  81; 6HR MAX TEMP:  86;

GREAT FALLS MT PTSUNNY   82  46  28 E10       30.14S THUNDER
6HR MIN TEMP:  71; 6HR MAX TEMP:  87; 6HR PCP: TRACE;

CHEYENNE WY    MOSUNNY   82  49  31 SE9       30.36R
6HR MIN TEMP:  80; 6HR MAX TEMP:  86;

SCOTTSBLUFF NE SUNNY     91  61  36 E15       30.19F HX  91
6HR MIN TEMP:  86; 6HR MAX TEMP:  93;

OMAHA NE       MOSUNNY   85  68  56 N18       30.09R
6HR MIN TEMP:  85; 6HR MAX TEMP:  92;

DES MOINES IA  PTSUNNY   85  70  60 N10       30.03S
6HR MIN TEMP:  85; 6HR MAX TEMP:  92; 6HR PCP: TRACE;

DAVENPORT IA   PTSUNNY   86  78  77 W8        29.98R HAZE    HX  98
6HR MIN TEMP:  85; 6HR MAX TEMP:  88;

CHICAGO IL     CLOUDY    87  72  60 SW15      29.94R HX  93
6HR MIN TEMP:  86; 6HR MAX TEMP:  90;

EAU CLAIRE WI  SUNNY     80  62  54 N9        30.05R
6HR MIN TEMP:  79; 6HR MAX TEMP:  86;

LA CROSSE WI   SUNNY     84  65  52 NW16      30.02R
6HR MIN TEMP:  84; 6HR MAX TEMP:  91;

$$

  *****  SOME NATIONAL WEATHER *****

CITY           SKY/WX    TMP DP  RH WIND       PRES   REMARKS
LA GUARDIA NY  PTCLDY    80  66  62 S12       30.06S
6HR MIN TEMP:  80; 6HR MAX TEMP:  87;



USA.gov is the U.S. government's official web portal to all federal, state and local government web resources and services.